| time (UTC) | temp F | wind direction | speed knots | gust knots | rain 1hr in | rain 24hr in | rain mn in | humidity % | barometer mb |
| 20260504204857 | 72 | 173 | 3.5 | 5.2 | 0.00 | 0.00 | 0.00 | 44 | 991.3 |
| 20260504204354 | 72 | 248 | 2.6 | 4.3 | 0.00 | 0.00 | 0.00 | 43 | 991.5 |
| 20260504203854 | 73 | 242 | 2.6 | 2.6 | 0.00 | 0.00 | 0.00 | 42 | 991.4 |
| 20260504203350 | 73 | 270 | 3.5 | 4.3 | 0.00 | 0.00 | 0.00 | 45 | 991.4 |
| 20260504202846 | 72 | 242 | 1.7 | 1.7 | 0.00 | 0.00 | 0.00 | 45 | 991.5 |
| 20260504202343 | 73 | 207 | 2.6 | 2.6 | 0.00 | 0.00 | 0.00 | 42 | 991.6 |
| 20260504201839 | 73 | 191 | 3.5 | 4.3 | 0.00 | 0.00 | 0.00 | 44 | 991.5 |
| 20260504201337 | 73 | 177 | 4.3 | 6.1 | 0.00 | 0.00 | 0.00 | 42 | 991.7 |
| 20260504200835 | 74 | 179 | 1.7 | 1.7 | 0.00 | 0.00 | 0.00 | 43 | 991.7 |
| 20260504200331 | 72 | 246 | 2.6 | 2.6 | 0.00 | 0.00 | 0.00 | 44 | 991.7 |
| 20260504195827 | 72 | 220 | 7.0 | 8.7 | 0.00 | 0.00 | 0.00 | 42 | 991.9 |
| 20260504195323 | 72 | 237 | 2.6 | 5.2 | 0.00 | 0.00 | 0.00 | 43 | 991.9 |
| 20260504194820 | 73 | 260 | 4.3 | 6.1 | 0.00 | 0.00 | 0.00 | 40 | 991.9 |
| 20260504194316 | 74 | 259 | 3.5 | 4.3 | 0.00 | 0.00 | 0.00 | 43 | 991.8 |
| 20260504193812 | 73 | 223 | 3.5 | 5.2 | 0.00 | 0.00 | 0.00 | 42 | 992.0 |
| 20260504193310 | 72 | 178 | 1.7 | 2.6 | 0.00 | 0.00 | 0.00 | 43 | 991.9 |
| 20260504192808 | 73 | 223 | 2.6 | 4.3 | 0.00 | 0.00 | 0.00 | 44 | 992.0 |
| 20260504192306 | 73 | 123 | 0.9 | 1.7 | 0.00 | 0.00 | 0.00 | 43 | 992.0 |
| 20260504191804 | 72 | 115 | 1.7 | 2.6 | 0.00 | 0.00 | 0.00 | 42 | 992.1 |
| 20260504191301 | 72 | 246 | 4.3 | 6.1 | 0.00 | 0.00 | 0.00 | 42 | 992.0 |
| 20260504190757 | 73 | 257 | 5.2 | 7.0 | 0.00 | 0.00 | 0.00 | 42 | 992.3 |
| 20260504190253 | 73 | 259 | 2.6 | 4.3 | 0.00 | 0.00 | 0.00 | 43 | 992.4 |
| 20260504185750 | 73 | 266 | 2.6 | 4.3 | 0.00 | 0.00 | 0.00 | 42 | 992.3 |
| 20260504185247 | 71 | 263 | 1.7 | 2.6 | 0.00 | 0.00 | 0.00 | 44 | 992.3 |
| 20260504184743 | 71 | 231 | 5.2 | 7.0 | 0.00 | 0.00 | 0.00 | 42 | 992.4 |
| 20260504184239 | 72 | 265 | 1.7 | 1.7 | 0.00 | 0.00 | 0.00 | 43 | 992.5 |
| 20260504183735 | 72 | 123 | 2.6 | 2.6 | 0.00 | 0.00 | 0.00 | 43 | 992.5 |
| 20260504183232 | 72 | 261 | 3.5 | 4.3 | 0.00 | 0.00 | 0.00 | 41 | 992.8 |
| 20260504182730 | 72 | 217 | 4.3 | 5.2 | 0.00 | 0.00 | 0.00 | 41 | 992.8 |
| 20260504182227 | 71 | 264 | 6.1 | 7.8 | 0.00 | 0.00 | 0.00 | 42 | 992.8 |
| 20260504181724 | 71 | 242 | 3.5 | 4.3 | 0.00 | 0.00 | 0.00 | 46 | 993.1 |
| 20260504181222 | 71 | 238 | 4.3 | 7.0 | 0.00 | 0.00 | 0.00 | 42 | 993.0 |
| 20260504180721 | 70 | 245 | 3.5 | 5.2 | 0.00 | 0.00 | 0.00 | 41 | 993.2 |
| 20260504180219 | 71 | 257 | 4.3 | 6.1 | 0.00 | 0.00 | 0.00 | 42 | 993.1 |
| 20260504175716 | 72 | 228 | 4.3 | 6.1 | 0.00 | 0.00 | 0.00 | 42 | 993.1 |
| 20260504175213 | 71 | 244 | 3.5 | 4.3 | 0.00 | 0.00 | 0.00 | 43 | 993.3 |
| 20260504174711 | 71 | 239 | 1.7 | 2.6 | 0.00 | 0.00 | 0.00 | 44 | 993.2 |
| 20260504174208 | 70 | 275 | 3.5 | 5.2 | 0.00 | 0.00 | 0.00 | 44 | 993.4 |
| 20260504173704 | 70 | 201 | 0.9 | 2.6 | 0.00 | 0.00 | 0.00 | 43 | 993.5 |
| 20260504173202 | 71 | 251 | 4.3 | 5.2 | 0.00 | 0.00 | 0.00 | 42 | 993.6 |
| 20260504172658 | 73 | 193 | 2.6 | 4.3 | 0.00 | 0.00 | 0.00 | 40 | 993.6 |
| 20260504172155 | 71 | 216 | 2.6 | 4.3 | 0.00 | 0.00 | 0.00 | 42 | 993.7 |
| 20260504171651 | 69 | 273 | 2.6 | 4.3 | 0.00 | 0.00 | 0.00 | 44 | 993.9 |
| 20260504171148 | 70 | 191 | 4.3 | 6.1 | 0.00 | 0.00 | 0.00 | 42 | 993.8 |
| 20260504170645 | 69 | 242 | 2.6 | 2.6 | 0.00 | 0.00 | 0.00 | 43 | 994.0 |
| 20260504170142 | 70 | 266 | 4.3 | 5.2 | 0.00 | 0.00 | 0.00 | 43 | 994.0 |
| 20260504151033 | 67 | 191 | 1.7 | 1.7 | 0.00 | 0.00 | 0.00 | 44 | 995.4 |
| 20260504150531 | 67 | 233 | 2.6 | 2.6 | 0.00 | 0.00 | 0.00 | 49 | 995.4 |
| 20260504140956 | 63 | 265 | 3.5 | 5.2 | 0.00 | 0.00 | 0.00 | 54 | 995.7 |
| 20260504140453 | 63 | 194 | 2.6 | 4.3 | 0.00 | 0.00 | 0.00 | 53 | 995.7 |
| 20260504130418 | 58 | 246 | 1.7 | 2.6 | 0.00 | 0.00 | 0.00 | 66 | 996.3 |
| 20260504110305 | 46 | 230 | 0.0 | 0.0 | 0.00 | 0.00 | 0.00 | 68 | 996.5 |
| 20260504100223 | 44 | 230 | 1.7 | 1.7 | 0.00 | 0.00 | 0.00 | 67 | 996.7 |
| 20260504081616 | 48 | 234 | 2.6 | 2.6 | 0.00 | 0.00 | 0.00 | 62 | 996.2 |
| 20260504081112 | 48 | 244 | 2.6 | 2.6 | 0.00 | 0.00 | 0.00 | 62 | 996.3 |
| 20260504080609 | 48 | 242 | 2.6 | 2.6 | 0.00 | 0.00 | 0.00 | 62 | 996.4 |
| 20260504080105 | 48 | 245 | 1.7 | 1.7 | 0.00 | 0.00 | 0.00 | 61 | 996.4 |
| 20260504050421 | 48 | 236 | 1.7 | 1.7 | 0.00 | 0.00 | 0.00 | 61 | 996.3 |
| 20260504045918 | 48 | 234 | 2.6 | 2.6 | 0.00 | 0.00 | 0.00 | 61 | 996.4 |
| 20260504045414 | 48 | 232 | 2.6 | 2.6 | 0.00 | 0.00 | 0.00 | 61 | 996.3 |
| 20260504044910 | 48 | 229 | 2.6 | 2.6 | 0.00 | 0.00 | 0.00 | 60 | 996.3 |
| 20260504044408 | 49 | 234 | 2.6 | 2.6 | 0.00 | 0.00 | 0.00 | 60 | 996.4 |
| 20260504043905 | 49 | 235 | 1.7 | 1.7 | 0.00 | 0.00 | 0.00 | 58 | 996.2 |
| 20260504043402 | 49 | 235 | 2.6 | 2.6 | 0.00 | 0.00 | 0.00 | 57 | 996.3 |
| 20260504042900 | 49 | 236 | 1.7 | 1.7 | 0.00 | 0.00 | 0.00 | 58 | 996.2 |
| 20260504042355 | 49 | 236 | 1.7 | 1.7 | 0.00 | 0.00 | 0.00 | 58 | 996.2 |
| 20260504041852 | 50 | 235 | 1.7 | 2.6 | 0.00 | 0.00 | 0.00 | 58 | 996.2 |
| 20260504041348 | 49 | 235 | 2.6 | 2.6 | 0.00 | 0.00 | 0.00 | 57 | 996.1 |
| 20260504040845 | 49 | 237 | 1.7 | 1.7 | 0.00 | 0.00 | 0.00 | 59 | 996.1 |
| 20260504040342 | 49 | 237 | 1.7 | 1.7 | 0.00 | 0.00 | 0.00 | 58 | 996.0 |
| 20260504035838 | 49 | 238 | 2.6 | 2.6 | 0.00 | 0.00 | 0.00 | 58 | 996.0 |
| 20260504035336 | 49 | 238 | 1.7 | 1.7 | 0.00 | 0.00 | 0.00 | 58 | 995.9 |
| 20260504034832 | 49 | 240 | 1.7 | 1.7 | 0.00 | 0.00 | 0.00 | 59 | 996.1 |
| 20260504034330 | 49 | 239 | 2.6 | 2.6 | 0.00 | 0.00 | 0.00 | 58 | 995.9 |
| 20260504033827 | 49 | 241 | 2.6 | 2.6 | 0.00 | 0.00 | 0.00 | 58 | 995.9 |
| 20260504033325 | 50 | 241 | 2.6 | 2.6 | 0.00 | 0.00 | 0.00 | 58 | 995.8 |
| 20260504032821 | 50 | 241 | 2.6 | 2.6 | 0.00 | 0.00 | 0.00 | 58 | 995.7 |
| 20260504032319 | 50 | 241 | 1.7 | 1.7 | 0.00 | 0.00 | 0.00 | 58 | 995.8 |
| 20260504031815 | 50 | 245 | 1.7 | 2.6 | 0.00 | 0.00 | 0.00 | 57 | 995.7 |
| 20260504031313 | 50 | 240 | 2.6 | 2.6 | 0.00 | 0.00 | 0.00 | 58 | 995.7 |
| 20260504030809 | 50 | 238 | 2.6 | 2.6 | 0.00 | 0.00 | 0.00 | 57 | 995.8 |
| 20260504030306 | 50 | 240 | 2.6 | 2.6 | 0.00 | 0.00 | 0.00 | 58 | 995.7 |
| 20260504025802 | 50 | 240 | 1.7 | 1.7 | 0.00 | 0.00 | 0.00 | 58 | 995.6 |
| 20260504025259 | 50 | 239 | 1.7 | 1.7 | 0.00 | 0.00 | 0.00 | 58 | 995.7 |
| 20260504024755 | 50 | 238 | 2.6 | 4.3 | 0.00 | 0.00 | 0.00 | 56 | 995.6 |
| 20260504024252 | 50 | 239 | 2.6 | 2.6 | 0.00 | 0.00 | 0.00 | 56 | 995.7 |
| 20260504023749 | 50 | 238 | 2.6 | 2.6 | 0.00 | 0.00 | 0.00 | 56 | 995.7 |
| 20260504023246 | 50 | 237 | 2.6 | 2.6 | 0.00 | 0.00 | 0.00 | 57 | 995.8 |
| 20260504022741 | 50 | 237 | 1.7 | 1.7 | 0.00 | 0.00 | 0.00 | 57 | 995.8 |
| 20260504022238 | 51 | 236 | 1.7 | 1.7 | 0.00 | 0.00 | 0.00 | 54 | 995.7 |
| 20260504021735 | 51 | 235 | 2.6 | 2.6 | 0.00 | 0.00 | 0.00 | 54 | 995.8 |
| 20260504021232 | 52 | 234 | 2.6 | 2.6 | 0.00 | 0.00 | 0.00 | 52 | 995.7 |
| 20260504020729 | 52 | 238 | 2.6 | 2.6 | 0.00 | 0.00 | 0.00 | 53 | 995.9 |
| 20260504020226 | 52 | 239 | 2.6 | 2.6 | 0.00 | 0.00 | 0.00 | 52 | 995.8 |
| 20260504015722 | 52 | 238 | 2.6 | 2.6 | 0.00 | 0.00 | 0.00 | 52 | 995.6 |
| 20260504015218 | 52 | 239 | 2.6 | 2.6 | 0.00 | 0.00 | 0.00 | 52 | 995.8 |
| 20260504014714 | 53 | 241 | 2.6 | 2.6 | 0.00 | 0.00 | 0.00 | 52 | 995.5 |
| 20260504014211 | 53 | 242 | 2.6 | 2.6 | 0.00 | 0.00 | 0.00 | 52 | 995.4 |
| 20260504013709 | 53 | 240 | 2.6 | 4.3 | 0.00 | 0.00 | 0.00 | 51 | 995.7 |
| 20260504013206 | 53 | 237 | 0.9 | 1.7 | 0.00 | 0.00 | 0.00 | 52 | 995.4 |
| 20260504012703 | 53 | 242 | 2.6 | 2.6 | 0.00 | 0.00 | 0.00 | 52 | 995.6 |
| 20260504012201 | 53 | 242 | 0.9 | 1.7 | 0.00 | 0.00 | 0.00 | 52 | 995.5 |
| 20260504011657 | 53 | 241 | 0.9 | 1.7 | 0.00 | 0.00 | 0.00 | 53 | 995.3 |
| 20260504011154 | 53 | 239 | 1.7 | 1.7 | 0.00 | 0.00 | 0.00 | 52 | 995.2 |
| 20260504010650 | 54 | 240 | 1.7 | 1.7 | 0.00 | 0.00 | 0.00 | 51 | 995.4 |
| 20260504010145 | 54 | 237 | 1.7 | 1.7 | 0.00 | 0.00 | 0.00 | 49 | 995.2 |
| 20260504005643 | 53 | 246 | 1.7 | 2.6 | 0.00 | 0.00 | 0.00 | 51 | 995.5 |
| 20260504005139 | 54 | 241 | 1.7 | 2.6 | 0.00 | 0.00 | 0.00 | 51 | 995.2 |
| 20260504004638 | 54 | 239 | 1.7 | 1.7 | 0.00 | 0.00 | 0.00 | 51 | 995.1 |
| 20260504004134 | 54 | 241 | 1.7 | 1.7 | 0.00 | 0.00 | 0.00 | 50 | 995.2 |
| 20260504003631 | 54 | 238 | 2.6 | 2.6 | 0.00 | 0.00 | 0.00 | 49 | 994.9 |
| 20260504003127 | 54 | 245 | 1.7 | 2.6 | 0.00 | 0.00 | 0.00 | 48 | 994.9 |
| 20260504002624 | 55 | 240 | 1.7 | 1.7 | 0.00 | 0.00 | 0.00 | 49 | 994.7 |
| 20260504002122 | 55 | 240 | 1.7 | 2.6 | 0.00 | 0.00 | 0.00 | 47 | 994.7 |
| 20260504001619 | 55 | 242 | 1.7 | 1.7 | 0.00 | 0.00 | 0.00 | 47 | 994.5 |
| 20260504001115 | 55 | 239 | 1.7 | 1.7 | 0.00 | 0.00 | 0.00 | 47 | 994.5 |
| 20260504000613 | 55 | 241 | 1.7 | 1.7 | 0.00 | 0.00 | 0.00 | 48 | 994.7 |
| 20260504000110 | 55 | 242 | 0.9 | 0.9 | 0.00 | 0.00 | 0.00 | 48 | 994.3 |
| 20260503235608 | 56 | 244 | 0.9 | 0.9 | 0.00 | 0.00 | 0.00 | 48 | 994.5 |
| 20260503235105 | 56 | 245 | 0.9 | 2.6 | 0.00 | 0.00 | 0.00 | 47 | 994.4 |
| 20260503234603 | 57 | 249 | 0.9 | 0.9 | 0.00 | 0.00 | 0.00 | 47 | 994.2 |
| 20260503234100 | 57 | 255 | 0.9 | 1.7 | 0.00 | 0.00 | 0.00 | 47 | 994.2 |
| 20260503233556 | 57 | 249 | 0.9 | 0.9 | 0.00 | 0.00 | 0.00 | 45 | 994.3 |
| 20260503233052 | 57 | 237 | 1.7 | 1.7 | 0.00 | 0.00 | 0.00 | 46 | 994.2 |
| 20260503232550 | 58 | 267 | 0.9 | 0.9 | 0.00 | 0.00 | 0.00 | 45 | 994.4 |
| 20260503232047 | 58 | 255 | 2.6 | 2.6 | 0.00 | 0.00 | 0.00 | 42 | 994.2 |
| 20260503231545 | 58 | 310 | 0.9 | 0.9 | 0.00 | 0.00 | 0.00 | 44 | 994.1 |
| 20260503231041 | 58 | 282 | 1.7 | 1.7 | 0.00 | 0.00 | 0.00 | 43 | 994.3 |
| 20260503230538 | 58 | 262 | 0.9 | 1.7 | 0.00 | 0.00 | 0.00 | 42 | 994.1 |
| 20260503230036 | 58 | 287 | 2.6 | 4.3 | 0.00 | 0.00 | 0.00 | 44 | 994.0 |
| 20260503225532 | 59 | 285 | 0.9 | 0.9 | 0.00 | 0.00 | 0.00 | 45 | 993.8 |
| 20260503225027 | 59 | 278 | 0.9 | 1.7 | 0.00 | 0.00 | 0.00 | 43 | 994.1 |
| 20260503224525 | 59 | 310 | 0.9 | 1.7 | 0.00 | 0.00 | 0.00 | 42 | 994.0 |
| 20260503224023 | 59 | 275 | 2.6 | 4.3 | 0.00 | 0.00 | 0.00 | 41 | 994.0 |
| 20260503223520 | 59 | 246 | 1.7 | 2.6 | 0.00 | 0.00 | 0.00 | 43 | 994.2 |
| 20260503223016 | 59 | 303 | 3.5 | 5.2 | 0.00 | 0.00 | 0.00 | 41 | 994.0 |
| 20260503222514 | 59 | 268 | 1.7 | 1.7 | 0.00 | 0.00 | 0.00 | 44 | 994.2 |
| 20260503222012 | 59 | 318 | 0.9 | 1.7 | 0.00 | 0.00 | 0.00 | 42 | 994.2 |
| 20260503221510 | 59 | 286 | 0.0 | 0.9 | 0.00 | 0.00 | 0.00 | 43 | 994.0 |
| 20260503221007 | 60 | 340 | 3.5 | 4.3 | 0.00 | 0.00 | 0.00 | 40 | 994.2 |
| 20260503220503 | 60 | 256 | 1.7 | 1.7 | 0.00 | 0.00 | 0.00 | 40 | 993.9 |
| 20260503220000 | 60 | 318 | 1.7 | 1.7 | 0.00 | 0.00 | 0.00 | 40 | 994.2 |
| 20260503215457 | 61 | 260 | 2.6 | 4.3 | 0.00 | 0.00 | 0.00 | 41 | 994.2 |
| 20260503214954 | 61 | 357 | 1.7 | 1.7 | 0.00 | 0.00 | 0.00 | 38 | 994.0 |
| 20260503214452 | 60 | 267 | 0.9 | 1.7 | 0.00 | 0.00 | 0.00 | 38 | 994.1 |
| 20260503213949 | 61 | 251 | 2.6 | 4.3 | 0.00 | 0.00 | 0.00 | 40 | 994.1 |
| 20260503213447 | 61 | 245 | 2.6 | 4.3 | 0.00 | 0.00 | 0.00 | 38 | 994.0 |
| 20260503212943 | 60 | 338 | 0.9 | 1.7 | 0.00 | 0.00 | 0.00 | 38 | 993.9 |
| 20260503212441 | 60 | 293 | 2.6 | 2.6 | 0.00 | 0.00 | 0.00 | 37 | 993.9 |
| 20260503211938 | 60 | 291 | 2.6 | 2.6 | 0.00 | 0.00 | 0.00 | 38 | 993.8 |
| 20260503211435 | 61 | 261 | 4.3 | 5.2 | 0.00 | 0.00 | 0.00 | 40 | 993.9 |
| 20260503210930 | 61 | 292 | 2.6 | 2.6 | 0.00 | 0.00 | 0.00 | 37 | 994.0 |
| 20260503210427 | 61 | 318 | 2.6 | 2.6 | 0.00 | 0.00 | 0.00 | 37 | 994.1 |
| 20260503205922 | 61 | 310 | 0.9 | 1.7 | 0.00 | 0.00 | 0.00 | 37 | 994.1 |
| 20260503205420 | 61 | 311 | 3.5 | 4.3 | 0.00 | 0.00 | 0.00 | 36 | 993.9 |